"Pseudo-MPEC" for C0CA9W1

Created 2019 Jun 16 1:07:12 UT using Find_Orb

Click here for an explanation of pseudo-MPECs

 
 Astrometry: 
     C0CA9W1  C2019 06 09.23016 14 04 30.24 -24 14 48.9    ~696M 18.2 GVNEOCP703
     C0CA9W1  C2019 06 09.23552 14 04 40.94 -24 12 43.8    ~696M 18.1 GVNEOCP703
     C0CA9W1  C2019 06 09.24089 14 04 51.79 -24 10 35.8    ~696M 18.6 GVNEOCP703
     C0CA9W1  C2019 06 09.26339 14 05 38.43 -24 01 25.4    ~696b 18.1 GVNEOCPI52
     C0CA9W1  C2019 06 09.26358 14 05 38.82 -24 01 20.8    ~696b 18.3 GVNEOCPI52
     C0CA9W1  C2019 06 09.26377 14 05 39.23 -24 01 15.4    ~696b 17.5 GVNEOCPI52
     C0CA9W1  C2019 06 09.26396 14 05 39.63 -24 01 10.7    ~696b 17.6 GVNEOCPI52

Station data:
(703) Catalina Sky Survey  (N32.417006 W110.732640)  US/Arizona.  Observers
   T. A. Pruyne, B. M. Africano, E. J. Christensen, G. A. Farneth, D. C.
   Fuls, A. R. Gibbs, A. D. Grauer, H. Groeller, J. A. Johnson, R. A.
   Kowalski, S. M. Larson, G. J. Leonard, R. L. Seaman, F. C. Shelly. 0.68 m
   Schmidt + 10K CCD.
(I52) Steward Observatory, Mt. Lemmon Station  (N32.442547 W110.788920)
   US/Arizona.  Observers T. A. Pruyne, B. M. Africano, E. J. Christensen, G.
   A. Farneth, D. C. Fuls, A. R. Gibbs, A. D. Grauer, H. Groeller, J. A.
   Johnson, R. A. Kowalski, S. M. Larson, G. J. Leonard, R. L. Seaman, F. C.
   Shelly. 1.0-m reflector + CCD.

Orbital elements:  C0CA9W1
   Perigee 2019 Jun 15.357706 TT =  8:35:05 (JD 2458649.857706)
Epoch 2019 Jun  9.0 TT = JDT 2458643.5                        AutoNEOCP
M 209.63015644                      (J2000 equator)
n  23.65158794     Peri.  112.26168
a259435.838km      Node   253.71927
e   0.2897289      Incl.   32.67261
P  15.22d          H   30.1     G   0.15   q 184269.768km  Q 334601.909km
From 7 observations 2019 June 9 (48.7 min); mean residual 0".30
Residuals in arcseconds: 
190609 703  .32-  .52+    190609 I52  .02+  .13-    190609 I52  .04-  .25+    
190609 703  .11-  .41-    190609 I52  .14-  .30-    
190609 703  .61+  .25-    190609 I52  .02-  .32+    

Ephemerides (geocentric):
Date (UTC) HH   RA              Dec         delta   r     elong  mag
---- -- -- --  -------------   -----------  ------ ------ -----  ---
2019 06 16 01  02 46 59.377   +18 42 54.34  189801 1.0148  39.5 22??
2019 06 16 02  02 53 33.713   +17 54 23.20  190537 1.0148  38.2 22??
2019 06 16 03  03 00 01.393   +17 05 26.45  191308 1.0148  37.0 22??
2019 06 16 04  03 06 22.543   +16 16 08.79  192115 1.0148  35.8 23??
2019 06 16 05  03 12 37.299   +15 26 34.71  192955 1.0147  34.7 23??
2019 06 16 06  03 18 45.807   +14 36 48.50  193828 1.0147  33.6 23??
2019 06 16 07  03 24 48.217   +13 46 54.22  194733 1.0147  32.6 23??
2019 06 16 08  03 30 44.685   +12 56 55.74  195668 1.0147  31.6 23??
2019 06 16 09  03 36 35.370   +12 06 56.70  196633 1.0147  30.7 24??
2019 06 16 10  03 42 20.434   +11 17 00.54  197627 1.0147  29.8 24??
2019 06 16 11  03 48 00.040   +10 27 10.46  198648 1.0147  29.0 24??
2019 06 16 12  03 53 34.351   +09 37 29.49  199695 1.0147  28.3 24??
2019 06 16 13  03 59 03.529   +08 48 00.45  200768 1.0146  27.7 24??
2019 06 16 14  04 04 27.735   +07 58 45.94  201866 1.0146  27.1 24??
2019 06 16 15  04 09 47.130   +07 09 48.41  202986 1.0146  26.6 24??
2019 06 16 16  04 15 01.870   +06 21 10.09  204128 1.0146  26.2 25??
2019 06 16 17  04 20 12.108   +05 32 53.06  205292 1.0146  25.9 25??
2019 06 16 18  04 25 17.998   +04 44 59.22  206475 1.0146  25.6 25??
2019 06 16 19  04 30 19.685   +03 57 30.30  207678 1.0146  25.5 25??
2019 06 16 20  04 35 17.314   +03 10 27.90  208899 1.0146  25.4 25??
2019 06 16 21  04 40 11.025   +02 23 53.45  210136 1.0146  25.3 25??
2019 06 16 22  04 45 00.955   +01 37 48.27  211390 1.0146  25.4 25??
2019 06 16 23  04 49 47.235   +00 52 13.52  212659 1.0146  25.5 25??
2019 06 17 00  04 54 29.994   +00 07 10.25  213941 1.0146  25.7 25??
2019 06 17 01  04 59 09.356   -00 37 20.60  215237 1.0146  25.9 25??
2019 06 17 02  05 03 45.440   -01 21 18.21  216546 1.0146  26.2 25??
2019 06 17 03  05 08 18.362   -02 04 41.85  217865 1.0146  26.6 25??
2019 06 17 04  05 12 48.235   -02 47 30.90  219195 1.0146  27.0 25??
2019 06 17 05  05 17 15.166   -03 29 44.81  220535 1.0146  27.4 24??
2019 06 17 06  05 21 39.258   -04 11 23.13  221884 1.0146  27.9 24??
2019 06 17 07  05 26 00.613   -04 52 25.48  223241 1.0146  28.5 24??
2019 06 17 08  05 30 19.326   -05 32 51.55  224605 1.0146  29.0 24??
2019 06 17 09  05 34 35.490   -06 12 41.09  225975 1.0146  29.6 24??
2019 06 17 10  05 38 49.194   -06 51 53.93  227352 1.0146  30.2 24??
2019 06 17 11  05 43 00.524   -07 30 29.93  228733 1.0146  30.9 24??
2019 06 17 12  05 47 09.562   -08 08 29.02  230119 1.0146  31.5 24??
2019 06 17 13  05 51 16.388   -08 45 51.18  231509 1.0146  32.2 24??
2019 06 17 14  05 55 21.076   -09 22 36.43  232902 1.0146  32.9 24??
2019 06 17 15  05 59 23.700   -09 58 44.81  234297 1.0146  33.6 23??
2019 06 17 16  06 03 24.329   -10 34 16.42  235694 1.0146  34.3 23??
2019 06 17 17  06 07 23.031   -11 09 11.39  237092 1.0146  35.1 23??
2019 06 17 18  06 11 19.871   -11 43 29.88  238491 1.0146  35.8 23??
2019 06 17 19  06 15 14.908   -12 17 12.06  239890 1.0147  36.5 23??
2019 06 17 20  06 19 08.204   -12 50 18.15  241288 1.0147  37.3 23??
2019 06 17 21  06 22 59.813   -13 22 48.37  242686 1.0147  38.0 23??
2019 06 17 22  06 26 49.791   -13 54 42.98  244082 1.0147  38.8 23??
2019 06 17 23  06 30 38.189   -14 26 02.23  245476 1.0147  39.5 23??
2019 06 18 00  06 34 25.058   -14 56 46.42  246868 1.0147  40.3 23??